Location: Unspecified
(19.4326°N, 99.1332°W)
Time: 11:38:33
(UTC-05:00)

Hubble Space Telescope - Visible Passes

Search period start: 21 July 2017 00:00
Search period end: 31 July 2017 00:00
Orbit: 538 x 542 km, 28.5° (Epoch: 21 July)

Date Brightness Start Highest point End Pass type
(mag) Time Alt. Az. Time Alt. Az. Time Alt. Az.
21 Jul 2.8 20:46:14 10° NW 20:49:30 22° N 20:52:47 10° NE visible
21 Jul 2.5 22:27:30 10° NW 22:30:18 29° NNW 22:30:18 29° NNW visible
22 Jul 2.8 20:36:15 10° NW 20:39:33 23° N 20:42:52 10° ENE visible
22 Jul 2.0 22:17:22 10° NW 22:20:36 37° N 22:20:36 37° N visible
23 Jul 1.5 22:07:14 10° WNW 22:10:54 47° N 22:10:54 47° N visible
24 Jul 0.9 21:57:07 10° WNW 22:01:12 62° NNE 22:01:13 62° NNE visible
25 Jul 0.6 21:47:00 10° WNW 21:51:08 80° NNE 21:51:34 69° E visible
26 Jul 0.7 21:36:56 10° WNW 21:41:04 78° SSW 21:41:57 53° SE visible
27 Jul 1.0 21:26:54 10° WNW 21:30:58 57° SSW 21:32:22 36° SE visible
28 Jul 1.5 21:16:56 10° W 21:20:51 42° SSW 21:22:51 24° SSE visible
29 Jul 2.0 21:07:04 10° W 21:10:44 31° SSW 21:13:22 16° SSE visible
30 Jul 2.5 20:57:19 10° W 21:00:36 23° SSW 21:03:54 10° SSE visible
